User: anonymous   Login
Location: Unspecified
(0.0000°N, 0.0000°E)
Time: 17:50:16
(UTC+00:00)
Language:

Vela 6A - Orbit

View from above orbital plane
View from above orbital plane
View from above satellite
View from above satellite

Ground track
Ground track

The orbit data is extracted from the following two-line orbital elements,

1 04366U 70027A   14306.70682822  .00000439  00000-0  00000+0 0   204
2 04366 051.2385 245.8642 7124698 083.9039 000.9266 00.21461083 28610
Epoch (UTC): 02 November 2014 16:57:49
Eccentricity: 0.7124698
inclination: 51.2385°
perigee height: 27505 km
apogee height: 195421 km
right ascension of ascending node: 245.8642°
argument of perigee: 83.9039°
revolutions per day: 0.21461083
mean anomaly at epoch: 0.9266°
orbit number at epoch: 2861

The dashed part of the orbit path shows where the satellite is in the earth's shadow,  

DLR